STARLINK-4412 (53477 NORAD) Tracking and Keplerian Element Data

This shows tracking and keplerian element data for the satellite.

Feedback or suggestion? Click here.




ElementValue
Catalog53477
NameSTARLINK-4412
Epoch Orbit1549
Epoch Day325.09898685
Epoch Year2022
RAAN84.1361
Inclination97.6561
Eccentricity5.45E-05
Argument of Perigee4.5323
Mean Anonmoly355.5906
Mean Motion15.01235893
Decay Rate5.332E-05
L11 53477U 22099N 22325.09898685 .00005332 00000+0 41971-3 0 9992
L22 53477 97.6561 84.1361 0000545 4.5323 355.5906 15.01235893 15495



Live tracking and technical data element details for STARLINK-4412 (NORAD 53477). STARLINK-4412 can be tracked NOW for your location showing map with azimuth and elevation plus other details from your city location.







IsCatalogInMostPopularTable: catalog: 53477, numindb: 4
Update: records affected: 1



GetName: 53477 STARLINK-4412

Hit Count: updated at: Thu, 08 Dec 2022 20:48:32 GMT